Lid_Strength_Index
0 1 1 1 1 1 1 0 -1 -0 -1 -1 -1 -0 -0 -0 -0 -0 0 0 0 0
0 0 1 -0 -0 0 -0 -0 -0 -0 -0 -0 -0 -0 -1 0 0 -0 -0 -0 -0 0
0 0 0 -0 0 0 -0 -0 -0 -0 -0 -0 -0 -0 -0 -0 -0 0 0 0 0 0
1 0 0 0 0 0 -0 -0 -0 -0 -0 0 -0 -0 0 0 -0 1 0 -0 0 0
1 0 1 1 0 -0 0 -0 -0 0 0 0 0 0 0 1 0 1 1 1 0 0
1 1 1 1 1 -0 0 0 -0 0 1 1 0 0 0 0 1 1 0 0 0 0
1 1 0 0 0 1 0 0 0 1 0 0 1 0 0 0 1 1 1 0 -0 0
0 0 0 0 0 0 1 2 2 1 1 0 0 0 1 1 1 1 1 0 0 -0
0 0 1 1 1 0 0 0 1 2 2 1 1 4 5 3 2 1 1 2 1 -0
1 1 1 1 1 1 1 1 1 1 2 2 1 6 7 5 0 1 2 1 1 1
1 1 1 1 1 1 1 1 1 1 1 2 2 6 8 7 0 0 1 0 0 0
2 1 1 1 1 1 1 1 1 1 1 1 2 6 8 7 1 1 1 0 0 -0
1 2 1 1 1 0 0 1 1 1 1 2 1 5 7 8 1 2 1 1 0 5
2 1 0 0 0 1 1 1 1 1 1 1 1 3 7 8 1 1 2 2 1 1